Simultaneous Nadir Overpasses (SNOs) Predictions

Prediction of SNOs between METOP-B and NOAA-19 Satellite Orbit:

Table of predicted SNOs for the next 14.0 days since TLE Epoch: 11/12/2022
Index Date (METOP-B) Time (METOP-B) Lat,Lon (METOP-B) SZA (METOP-B ) Date (NOAA-19) Time (NOAA-19) Lat,Lon (NOAA-19) SZA (NOAA-19 ) Distance(km) Time Diff (sec)
1 11/19/2022 16:45:29 80.91, -36.47 102.33 11/19/2022 16:44:21 80.91, -36.48 102.30 0.61 68
2 11/19/2022 17:36:11 -80.90, 130.58 77.70 11/19/2022 17:35:19 -80.91, 130.71 77.70 2.54 52
3 11/19/2022 18:26:51 80.91, -61.96 102.33 11/19/2022 18:26:21 80.91, -62.12 102.30 2.83 30
4 11/19/2022 19:17:32 -80.91, 105.44 77.66 11/19/2022 19:17:18 -80.91, 105.45 77.67 0.30 14
5 11/19/2022 20:08:13 80.90, -87.46 102.32 11/19/2022 20:08:20 80.91, -87.39 102.34 1.61 7
6 11/19/2022 20:58:54 -80.90, 79.95 77.66 11/19/2022 20:59:18 -80.91, 79.82 77.66 2.46 24
7 11/19/2022 21:49:34 80.91,-112.59 102.37 11/19/2022 21:50:19 80.91,-112.65 102.38 1.14 45



Historial Predications of SNOs between METOP-B and NOAA-19
